period_start,C,m1,H,J0,J1,J2,J3,J4,J5,JA,JB,JC,JD,JJ,JK,JN,#
2017-02-05 00:02:57,0.14,5.19,0.00,20.73,24.05,27.71,14.98,50.32,1039.57,2038.01,1950.84,2013.76,2260.92,600.07,614.20,29.99,0000 0000 0000 0000 000000
2017-02-05 00:07:59,0.09,5.20,0.00,20.71,24.05,27.70,14.98,50.30,1039.57,2038.03,1949.64,2012.98,2259.97,600.00,614.27,30.04,0000 0000 0000 0000 000000
2017-02-05 00:13:00,0.19,5.21,0.00,20.67,24.05,27.72,15.03,50.48,1039.57,2038.04,1948.32,2011.70,2258.62,600.13,614.46,30.09,0000 0000 0000 0000 000000
2017-02-05 00:18:01,0.13,5.22,0.00,20.68,24.05,27.72,15.04,50.33,1039.57,2038.03,1946.83,2010.69,2257.40,599.98,614.40,30.15,0000 0000 0000 0000 000000
2017-02-05 00:23:02,0.09,5.22,0.00,20.72,24.05,27.71,14.96,50.26,1039.57,2038.02,1945.60,2010.07,2256.58,600.01,614.25,30.20,0000 0000 0000 0000 000000
2017-02-05 00:28:03,0.12,5.23,0.00,20.67,24.05,27.72,14.92,50.37,1039.58,2038.01,1944.43,2009.24,2255.56,599.60,613.94,30.25,0000 0000 0000 0000 000000
2017-02-05 00:33:05,0.12,5.23,0.00,20.66,24.05,27.72,14.95,50.33,1039.57,2038.03,1943.19,2008.39,2254.51,599.73,614.08,30.30,0000 0000 0000 0000 000000
2017-02-05 00:38:06,0.13,5.24,0.00,20.67,24.05,27.71,15.00,50.39,1039.58,2038.03,1941.82,2007.49,2253.39,599.61,613.95,30.35,0000 0000 0000 0000 000000
2017-02-05 00:43:07,0.12,5.24,0.00,20.70,24.04,27.71,15.00,50.51,1039.59,2038.01,1940.58,2006.59,2252.33,600.11,614.27,30.40,0000 0000 0000 0000 000000
2017-02-05 00:48:08,0.11,5.25,0.00,20.65,24.04,27.71,14.98,50.38,1039.60,2038.01,1939.38,2005.72,2251.26,600.08,614.39,30.45,0000 0000 0000 0000 000000
2017-02-05 00:53:09,0.10,5.26,0.00,20.65,24.03,27.68,15.02,50.41,1039.60,2038.02,1938.14,2004.88,2250.25,600.01,614.40,30.50,0000 0000 0000 0000 000000
2017-02-05 00:58:11,0.13,5.26,0.00,20.70,24.02,27.70,15.02,50.37,1039.67,2038.02,1936.82,2003.99,2249.19,600.08,614.31,30.55,0000 0000 0000 0000 000000
2017-02-05 01:03:12,0.13,5.27,0.00,20.70,24.02,27.72,14.99,50.32,1039.77,2038.01,1935.60,2003.07,2248.13,600.23,614.45,30.60,0000 0000 0000 0000 000000
2017-02-05 01:08:13,0.12,5.28,0.00,20.67,24.02,27.72,15.03,50.46,1039.85,2038.02,1934.35,2002.18,2247.04,599.98,614.46,30.65,0000 0000 0000 0000 000000
2017-02-05 01:13:15,0.12,5.28,0.00,20.69,24.02,27.72,15.00,50.33,1039.78,2038.01,1933.01,2001.33,2245.97,599.93,614.37,30.70,0000 0000 0000 0000 000000
2017-02-05 01:18:16,0.13,5.29,0.00,20.73,24.02,27.74,14.98,50.42,1039.99,2038.02,1931.76,2000.42,2244.91,599.84,614.33,30.75,0000 0000 0000 0000 000000
2017-02-05 01:23:17,0.13,5.30,0.00,20.70,24.02,27.77,15.01,50.49,1040.04,2038.01,1930.45,1999.55,2243.84,599.75,614.26,30.80,0000 0000 0000 0000 000000
2017-02-05 01:28:19,0.12,5.30,0.00,20.66,24.02,27.73,14.99,50.47,1040.03,2038.03,1929.22,1998.66,2242.80,600.19,614.79,30.85,0000 0000 0000 0000 000000
2017-02-05 01:33:20,0.13,5.31,0.00,20.69,24.02,27.73,14.98,50.47,1040.02,2038.03,1927.87,1997.73,2241.71,599.77,614.42,30.90,0000 0000 0000 0000 000000
2017-02-05 01:38:21,0.12,5.31,0.00,20.71,24.02,27.73,14.97,50.57,1040.05,2038.02,1926.61,1996.86,2240.67,599.82,614.34,30.95,0000 0000 0000 0000 000000
2017-02-05 01:43:23,0.12,5.32,0.00,20.67,24.02,27.69,14.96,50.55,1040.05,2038.04,1925.36,1995.99,2239.69,599.95,614.43,31.00,0000 0000 0000 0000 000000
2017-02-05 01:48:24,0.11,5.33,0.00,20.64,24.02,27.74,15.02,50.67,1040.05,2038.05,1924.08,1995.12,2238.75,600.12,614.80,31.05,0000 0000 0000 0000 000000
2017-02-05 01:53:25,0.13,5.33,0.00,20.68,24.02,27.71,14.95,50.44,1040.05,2038.04,1922.78,1994.19,2237.68,600.01,614.53,31.10,0000 0000 0000 0000 000000
2017-02-05 01:58:26,0.14,5.34,0.00,20.72,24.02,27.71,14.92,50.62,1040.06,2038.08,1921.53,1993.34,2236.62,599.70,614.42,31.15,0000 0000 0000 0000 000000
2017-02-05 02:03:28,0.12,5.35,0.00,20.73,24.02,27.74,14.99,50.53,1040.07,2038.05,1920.32,1992.38,2235.55,600.19,614.68,31.20,0000 0000 0000 0000 000000
2017-02-05 02:08:29,0.12,5.35,0.00,20.67,24.02,27.72,15.02,50.66,1040.08,2038.04,1919.05,1991.43,2234.43,599.87,614.42,31.25,0000 0000 0000 0000 000000
2017-02-05 02:13:30,0.14,5.36,0.00,20.69,24.02,27.68,14.98,50.57,1040.10,2038.10,1917.77,1990.56,2233.42,600.23,614.85,31.30,0000 0000 0000 0000 000000
2017-02-05 02:18:31,0.13,5.37,0.00,20.74,24.02,27.70,15.03,50.57,1040.07,2038.16,1916.54,1989.71,2232.39,600.18,614.60,31.35,0000 0000 0000 0000 000000
2017-02-05 02:23:33,0.11,5.37,0.00,20.73,24.02,27.73,14.94,50.56,1040.07,2038.07,1915.22,1988.73,2231.29,599.70,614.29,31.40,0000 0000 0000 0000 000000
2017-02-05 02:28:34,0.12,5.38,0.00,20.67,24.02,27.70,15.03,50.67,1040.08,2038.09,1913.84,1987.82,2230.15,599.88,614.45,31.45,0000 0000 0000 0000 000000
2017-02-05 02:33:35,0.13,5.39,0.00,20.69,24.02,27.73,15.10,50.77,1040.08,2038.08,1912.60,1986.92,2229.07,600.28,614.77,31.50,0000 0000 0000 0000 000000
2017-02-05 02:38:36,0.13,5.39,0.00,20.73,24.02,27.69,14.97,50.52,1040.15,2038.12,1911.37,1986.00,2227.98,600.06,614.59,31.55,0000 0000 0000 0000 000000
2017-02-05 02:43:37,0.13,5.40,0.00,20.74,24.02,27.72,14.93,50.45,1040.17,2038.09,1909.96,1985.01,2226.81,600.14,614.67,31.60,0000 0000 0000 0000 000000
2017-02-05 02:48:39,0.13,5.41,0.00,20.68,24.02,27.72,15.00,50.63,1040.12,2038.14,1908.68,1984.11,2225.76,600.08,614.68,31.65,0000 0000 0000 0000 000000
2017-02-05 02:53:40,0.14,5.41,0.00,20.71,24.02,27.73,15.02,50.60,1040.11,2038.10,1907.40,1983.25,2224.65,600.33,614.86,31.70,0000 0000 0000 0000 000000
2017-02-05 02:58:41,0.13,5.42,0.00,20.77,24.02,27.70,14.99,50.58,1040.09,2038.09,1906.01,1982.38,2223.60,600.13,614.53,31.75,0000 0000 0000 0000 000000
2017-02-05 03:03:43,0.14,5.43,0.00,20.77,24.02,27.74,14.96,50.47,1040.09,2038.06,1904.62,1981.34,2222.35,599.95,614.42,31.80,0000 0000 0000 0000 000000
2017-02-05 03:08:44,0.13,5.43,0.00,20.71,24.03,27.78,14.98,50.75,1040.12,2038.06,1903.35,1980.36,2221.14,600.12,614.70,31.85,0000 0000 0000 0000 000000
2017-02-05 03:13:45,0.14,5.44,0.00,20.73,24.03,27.76,15.14,51.01,1040.18,2038.05,1901.87,1979.40,2219.96,600.15,614.74,31.90,0000 0000 0000 0000 000000
2017-02-05 03:18:46,0.13,5.45,0.00,20.78,24.03,27.75,15.05,50.86,1040.47,2038.06,1900.68,1978.51,2218.91,599.95,614.50,31.95,0000 0000 0000 0000 000000
2017-02-05 03:23:48,0.13,5.45,0.00,20.76,24.04,27.74,14.99,50.74,1040.52,2038.07,1899.51,1977.58,2217.78,599.85,614.70,32.00,0000 0000 0000 0000 000000
2017-02-05 03:28:49,0.12,5.46,0.00,20.72,24.05,27.75,14.97,50.77,1040.54,2038.04,1898.17,1976.66,2216.72,600.06,614.84,32.05,0000 0000 0000 0000 000000
2017-02-05 03:33:50,0.12,5.47,0.00,20.77,24.05,27.77,14.97,50.61,1040.54,2038.05,1896.92,1975.81,2215.67,600.05,614.87,32.10,0000 0000 0000 0000 000000
2017-02-05 03:38:52,0.14,5.47,0.00,20.81,24.05,27.80,14.95,50.63,1040.54,2038.04,1895.64,1974.80,2214.49,599.68,614.31,32.15,0000 0000 0000 0000 000000
2017-02-05 03:43:53,0.13,5.48,0.00,20.78,24.05,27.81,14.93,50.55,1040.55,2038.01,1894.27,1973.76,2213.31,599.91,614.50,32.20,0000 0000 0000 0000 000000
2017-02-05 03:48:54,0.13,5.49,0.00,20.76,24.05,27.80,15.03,50.57,1040.56,2038.03,1892.90,1972.81,2212.15,599.83,614.59,32.25,0000 0000 0000 0000 000000
2017-02-05 03:53:56,0.12,5.50,0.00,20.81,24.05,27.82,15.04,50.57,1040.59,2038.02,1891.67,1971.91,2211.05,599.85,614.52,32.30,0000 0000 0000 0000 000000
2017-02-05 03:58:57,0.13,5.50,0.00,20.81,24.07,27.82,14.91,50.61,1040.60,2038.04,1890.47,1971.01,2209.96,599.61,614.18,32.35,0000 0000 0000 0000 000000
2017-02-05 04:03:58,0.13,5.51,0.00,20.79,24.07,27.85,14.97,50.46,1040.60,2038.03,1889.15,1970.03,2208.79,599.36,614.09,32.41,0000 0000 0000 0000 000000
2017-02-05 04:09:00,0.14,5.52,0.00,20.81,24.07,27.84,14.93,50.51,1040.57,2038.01,1887.76,1969.03,2207.62,599.63,614.25,32.46,0000 0000 0000 0000 000000
2017-02-05 04:14:01,0.13,5.52,0.00,20.87,24.07,27.85,15.04,50.54,1040.56,2038.00,1886.47,1968.08,2206.49,600.13,614.62,32.51,0000 0000 0000 0000 000000
2017-02-05 04:19:02,0.12,5.53,0.00,20.86,24.09,27.89,14.96,50.48,1040.60,2038.00,1885.19,1967.16,2205.38,599.59,614.17,32.56,0000 0000 0000 0000 000000
2017-02-05 04:24:03,0.14,5.54,0.00,20.83,24.10,27.92,15.05,50.56,1040.62,2038.00,1883.85,1966.17,2204.22,600.00,614.62,32.61,0000 0000 0000 0000 000000
2017-02-05 04:29:04,0.14,5.54,0.00,20.86,24.11,27.94,14.94,50.58,1040.64,2038.00,1882.56,1965.17,2203.01,599.88,614.53,32.66,0000 0000 0000 0000 000000
2017-02-05 04:34:06,0.13,5.55,0.00,20.92,24.12,27.96,15.04,50.63,1040.79,2038.00,1881.22,1964.12,2201.82,599.84,614.49,32.71,0000 0000 0000 0000 000000
2017-02-05 04:39:07,0.15,5.56,0.00,20.90,24.14,27.97,14.96,50.60,1040.76,2038.00,1879.86,1963.17,2200.67,600.02,614.58,32.76,0000 0000 0000 0000 000000
2017-02-05 04:44:08,0.15,5.57,0.00,20.89,24.15,27.96,15.05,50.58,1040.86,2037.99,1878.47,1962.14,2199.43,600.18,614.83,32.81,0000 0000 0000 0000 000000
2017-02-05 04:49:09,0.13,5.57,0.00,20.93,24.17,27.98,15.07,50.70,1040.96,2037.98,1877.06,1961.05,2198.20,600.48,615.06,32.86,0000 0000 0000 0000 000000
2017-02-05 04:54:11,0.14,5.58,0.00,20.94,24.17,27.95,15.03,50.70,1040.91,2037.97,1875.75,1960.04,2197.02,599.99,614.45,32.91,0000 0000 0000 0000 000000
2017-02-05 04:59:12,0.14,5.59,0.00,20.92,24.18,27.97,14.98,50.82,1040.92,2037.97,1874.48,1959.07,2195.93,600.02,614.48,32.96,0000 0000 0000 0000 000000
2017-02-05 05:04:13,0.14,5.60,0.00,20.91,24.20,27.97,15.02,50.77,1041.02,2037.98,1873.21,1958.08,2194.73,600.43,615.12,33.01,0000 0000 0000 0000 000000
2017-02-05 05:09:15,0.14,5.60,0.00,20.95,24.20,27.98,15.05,50.58,1041.04,2037.95,1871.83,1957.11,2193.59,600.41,614.98,33.06,0000 0000 0000 0000 000000
2017-02-05 05:14:16,0.13,5.61,0.00,20.96,24.21,27.99,14.96,50.73,1041.03,2037.92,1870.61,1956.14,2192.47,599.98,614.56,33.11,0000 0000 0000 0000 000000
2017-02-05 05:19:17,0.13,5.62,0.00,20.92,24.22,27.96,15.04,50.74,1041.03,2037.90,1869.33,1955.19,2191.37,600.06,614.83,33.16,0000 0000 0000 0000 000000
2017-02-05 05:24:19,0.10,5.62,0.00,20.89,24.22,27.99,14.96,50.63,1041.07,2037.84,1868.03,1954.30,2190.31,600.06,614.86,33.21,0000 0000 0000 0000 000000
2017-02-05 05:29:20,0.16,5.63,0.00,20.92,24.22,27.97,15.01,50.76,1041.16,2037.79,1866.76,1953.32,2189.12,599.97,614.72,33.26,0000 0000 0000 0000 000000
2017-02-05 05:34:21,0.11,5.64,0.00,20.94,24.22,27.97,15.04,50.61,1041.32,2037.77,1865.51,1952.38,2188.00,600.43,615.24,33.32,0000 0000 0000 0000 000000
2017-02-05 05:39:22,0.14,5.64,0.00,20.90,24.24,27.96,15.01,50.53,1041.25,2037.75,1864.32,1951.46,2186.88,599.88,614.77,33.37,0000 0000 0000 0000 000000
2017-02-05 05:44:24,0.11,5.65,0.00,20.88,24.24,27.98,15.07,50.83,1041.40,2037.66,1863.06,1950.43,2185.81,600.11,615.03,33.42,0000 0000 0000 0000 000000
2017-02-05 05:49:26,0.09,5.65,0.00,20.94,24.25,27.95,14.94,50.67,1041.49,2037.27,1861.80,1949.54,2184.68,599.92,614.76,33.47,0000 0000 0000 0000 000000
2017-02-05 05:54:27,0.13,5.66,0.00,20.93,24.25,27.98,14.93,50.65,1041.51,2037.26,1860.67,1948.69,2183.68,599.73,614.55,33.52,0000 0000 0000 0000 000000
2017-02-05 05:59:28,0.13,5.66,0.00,20.88,24.25,27.97,15.01,50.67,1041.52,2037.34,1859.47,1947.85,2182.63,599.99,614.97,33.57,0000 0000 0000 0000 000000
2017-02-05 06:04:29,0.09,5.67,0.00,20.91,24.25,27.96,14.99,50.73,1041.51,2037.15,1858.25,1946.86,2181.50,599.83,614.92,33.62,0000 0000 0000 0000 000000
2017-02-05 06:09:30,0.12,5.68,0.00,20.96,24.25,27.96,14.91,50.67,1041.52,2037.11,1856.97,1945.96,2180.52,599.79,614.60,33.67,0000 0000 0000 0000 000000
2017-02-05 06:14:32,0.14,5.68,0.00,20.95,24.25,27.92,14.98,50.75,1041.52,2037.03,1855.72,1945.03,2179.37,600.02,614.78,33.72,0000 0000 0000 0000 000000
2017-02-05 06:19:33,0.13,5.69,0.00,20.89,24.25,27.95,15.03,50.77,1041.52,2037.06,1854.63,1944.09,2178.27,600.05,615.05,33.77,0000 0000 0000 0000 000000
2017-02-05 06:24:34,0.13,5.70,0.00,20.88,24.25,27.94,14.97,50.66,1041.52,2037.07,1853.50,1943.27,2177.25,599.94,614.99,33.82,0000 0000 0000 0000 000000
2017-02-05 06:29:36,0.12,5.70,0.00,20.92,24.25,27.96,15.03,50.69,1041.52,2037.10,1852.37,1942.40,2176.27,600.21,615.09,33.87,0000 0000 0000 0000 000000
2017-02-05 06:34:37,0.13,5.71,0.00,20.89,24.25,27.94,15.06,50.65,1041.54,2037.11,1851.07,1941.42,2175.19,600.07,615.24,33.92,0000 0000 0000 0000 000000
2017-02-05 06:39:38,0.13,5.72,0.00,20.86,24.25,27.93,15.04,50.64,1041.55,2037.09,1849.82,1940.47,2174.13,599.95,615.08,33.97,0000 0000 0000 0000 000000
2017-02-05 06:44:40,0.13,5.72,0.00,20.89,24.25,27.93,15.02,50.67,1041.56,2037.10,1848.62,1939.63,2173.10,599.84,614.83,34.02,0000 0000 0000 0000 000000
2017-02-05 06:49:41,0.10,5.73,0.00,20.91,24.25,27.93,14.97,50.65,1041.66,2037.08,1847.49,1938.84,2172.07,599.93,614.98,34.07,0000 0000 0000 0000 000000
2017-02-05 06:54:43,0.12,5.74,0.00,20.89,24.25,27.91,15.02,50.65,1041.72,2037.11,1846.39,1937.96,2171.06,599.98,615.18,34.12,0000 0000 0000 0000 000000
2017-02-05 06:59:44,0.13,5.74,0.00,20.85,24.24,27.90,15.01,50.65,1041.71,2037.11,1845.18,1937.09,2170.04,599.95,615.15,34.17,0000 0000 0000 0000 000000
2017-02-05 07:04:45,0.11,5.75,0.00,20.87,24.23,27.90,15.04,50.67,1041.82,2037.09,1844.03,1936.18,2169.04,600.17,615.52,34.23,0000 0000 0000 0000 000000
2017-02-05 07:09:47,0.13,5.76,0.00,20.90,24.22,27.92,14.88,50.67,1041.97,2037.07,1842.86,1935.38,2168.03,599.81,615.19,34.28,0000 0000 0000 0000 000000
2017-02-05 07:14:48,0.13,5.76,0.00,20.85,24.22,27.89,14.96,50.67,1041.99,2037.02,1841.68,1934.49,2166.98,599.81,615.17,34.33,0000 0000 0000 0000 000000
2017-02-05 07:19:49,0.11,5.77,0.00,20.83,24.22,27.89,15.04,50.53,1041.99,2037.03,1840.54,1933.71,2165.96,599.82,615.25,34.38,0000 0000 0000 0000 000000
2017-02-05 07:24:51,0.11,5.77,0.00,20.85,24.22,27.89,14.98,50.64,1042.00,2037.01,1839.43,1932.85,2164.98,599.83,615.27,34.43,0000 0000 0000 0000 000000
2017-02-05 07:29:52,0.11,5.78,0.00,20.85,24.22,27.89,15.02,50.58,1042.01,2037.03,1838.24,1932.04,2164.03,599.90,615.32,34.48,0000 0000 0000 0000 000000
2017-02-05 07:34:54,0.13,5.79,0.00,20.82,24.22,27.86,15.08,50.57,1042.02,2037.04,1837.05,1931.22,2163.06,599.99,615.44,34.53,0000 0000 0000 0000 000000
2017-02-05 07:39:55,0.13,5.79,0.00,20.85,24.21,27.88,14.88,50.43,1042.03,2037.04,1835.85,1930.39,2162.04,599.84,615.19,34.58,0000 0000 0000 0000 000000
2017-02-05 07:44:56,0.13,5.80,0.00,20.86,24.20,27.89,15.12,50.56,1042.15,2037.06,1834.70,1929.60,2161.04,600.44,615.82,34.63,0000 0000 0000 0000 000000
2017-02-05 07:49:58,0.11,5.81,0.00,20.84,24.20,27.87,15.00,50.51,1042.34,2037.05,1833.53,1928.80,2160.09,600.06,615.72,34.68,0000 0000 0000 0000 000000
2017-02-05 07:54:59,0.11,5.81,0.00,20.80,24.20,27.85,15.06,50.58,1042.17,2037.07,1832.42,1927.97,2159.12,600.13,615.82,34.73,0000 0000 0000 0000 000000
2017-02-05 08:00:01,0.12,5.82,0.00,20.82,24.20,27.86,15.10,50.58,1042.12,2037.05,1831.20,1927.08,2158.06,600.47,615.93,34.78,0000 0000 0000 0000 000000
2017-02-05 08:05:02,0.13,5.83,0.00,20.87,24.20,27.86,15.14,50.58,1042.11,2037.02,1830.01,1926.18,2157.05,600.17,615.72,34.83,0000 0000 0000 0000 000000
2017-02-05 08:10:03,0.13,5.83,0.00,20.83,24.20,27.84,14.99,50.54,1042.02,2037.03,1828.83,1925.35,2156.06,599.94,615.39,34.88,0000 0000 0000 0000 000000
2017-02-05 08:15:04,0.12,5.84,0.00,20.79,24.19,27.88,15.07,50.53,1042.06,2037.04,1827.69,1924.57,2155.11,599.91,615.45,34.93,0000 0000 0000 0000 000000
2017-02-05 08:20:05,0.12,5.84,0.00,20.84,24.17,27.88,14.94,50.68,1042.05,2037.06,1826.55,1923.79,2154.15,599.76,615.24,34.98,0000 0000 0000 0000 000000
2017-02-05 08:25:07,0.11,5.85,0.00,20.87,24.17,27.85,15.05,50.58,1042.03,2037.06,1825.42,1922.96,2153.20,600.10,615.34,35.03,0000 0000 0000 0000 000000
2017-02-05 08:30:08,0.13,5.86,0.00,20.82,24.17,27.85,15.01,50.64,1042.01,2037.06,1824.30,1922.09,2152.21,600.30,615.67,35.09,0000 0000 0000 0000 000000
2017-02-05 08:35:09,0.13,5.86,0.00,20.80,24.17,27.86,15.04,50.53,1042.01,2037.09,1823.07,1921.26,2151.23,599.90,615.38,35.14,0000 0000 0000 0000 000000
2017-02-05 08:40:11,0.13,5.87,0.00,20.82,24.17,27.84,15.00,50.45,1042.02,2037.09,1821.87,1920.50,2150.26,600.01,615.40,35.19,0000 0000 0000 0000 000000
2017-02-05 08:45:12,0.11,5.88,0.00,20.83,24.17,27.84,15.08,50.40,1042.04,2037.09,1820.74,1919.77,2149.33,599.75,615.20,35.24,0000 0000 0000 0000 000000
2017-02-05 08:50:13,0.13,5.88,0.00,20.79,24.17,27.82,14.97,50.36,1042.29,2037.17,1819.62,1918.96,2148.29,599.81,615.53,35.29,0000 0000 0000 0000 000000
2017-02-05 08:55:15,0.12,5.89,0.00,20.80,24.17,27.82,15.05,50.42,1042.42,2037.07,1818.44,1918.06,2147.27,599.96,615.75,35.34,0000 0000 0000 0000 000000
2017-02-05 09:00:16,0.12,5.90,0.00,20.82,24.15,27.83,14.90,50.28,1042.11,2037.04,1817.26,1917.18,2146.25,599.84,615.35,35.39,0000 0000 0000 0000 000000
2017-02-05 09:05:17,0.13,5.90,0.00,20.81,24.15,27.83,15.06,50.36,1042.04,2037.09,1816.16,1916.40,2145.29,600.17,615.76,35.44,0000 0000 0000 0000 000000
2017-02-05 09:10:18,0.12,5.91,0.00,20.78,24.15,27.81,14.90,50.33,1042.03,2037.10,1815.02,1915.58,2144.31,599.85,615.41,35.49,0000 0000 0000 0000 000000
2017-02-05 09:15:19,0.12,5.91,0.00,20.78,24.15,27.81,14.94,50.48,1042.02,2037.05,1813.78,1914.75,2143.30,599.92,615.33,35.54,0000 0000 0000 0000 000000
2017-02-05 09:20:20,0.14,5.92,0.00,20.81,24.15,27.80,15.06,50.45,1042.02,2037.12,1812.61,1913.91,2142.25,600.15,615.60,35.59,0000 0000 0000 0000 000000
2017-02-05 09:25:22,0.13,5.93,0.00,20.77,24.14,27.83,15.03,50.56,1042.02,2037.20,1811.54,1913.05,2141.31,600.06,615.72,35.64,0000 0000 0000 0000 000000
2017-02-05 09:30:23,0.12,5.94,0.00,20.75,24.13,27.81,15.06,50.41,1042.06,2037.23,1810.43,1912.17,2140.33,600.02,615.64,35.69,0000 0000 0000 0000 000000
2017-02-05 09:35:25,0.12,5.94,0.00,20.77,24.12,27.79,14.97,50.41,1042.04,2037.17,1809.30,1911.43,2139.37,599.98,615.55,35.74,0000 0000 0000 0000 000000
2017-02-05 09:40:26,0.12,5.95,0.00,20.81,24.12,27.80,15.00,50.40,1042.03,2037.21,1808.20,1910.65,2138.41,599.83,615.31,35.79,0000 0000 0000 0000 000000
2017-02-05 09:45:27,0.10,5.95,0.00,20.76,24.12,27.78,15.14,50.47,1042.03,2037.26,1807.03,1909.88,2137.48,600.18,615.68,35.84,0000 0000 0000 0000 000000
2017-02-05 09:50:28,0.12,5.96,0.00,20.75,24.12,27.81,15.12,50.48,1042.03,2037.20,1805.92,1909.05,2136.52,600.27,615.68,35.89,0000 0000 0000 0000 000000
2017-02-05 09:55:29,0.13,5.97,0.00,20.78,24.11,27.78,15.12,50.47,1042.03,2037.18,1804.76,1908.22,2135.63,600.36,615.89,35.94,0000 0000 0000 0000 000000
2017-02-05 10:00:30,0.15,5.97,0.00,20.80,24.10,27.82,15.02,50.42,1042.06,2037.26,1803.56,1907.43,2134.57,599.83,615.48,35.99,0000 0000 0000 0000 000000
2017-02-05 10:05:32,0.10,5.98,0.00,20.76,24.10,27.80,14.92,50.44,1042.06,2037.25,1802.46,1906.73,2133.70,599.75,615.44,36.05,0000 0000 0000 0000 000000
2017-02-05 10:10:33,0.11,5.98,0.00,20.72,24.10,27.79,15.11,50.48,1042.04,2037.14,1801.28,1905.88,2132.73,599.91,615.63,36.10,0000 0000 0000 0000 000000
2017-02-05 10:15:34,0.15,5.99,0.00,20.74,24.10,27.80,14.98,50.39,1042.04,2037.37,1800.17,1905.06,2131.80,599.62,615.25,36.15,0000 0000 0000 0000 000000
2017-02-05 10:20:35,0.13,6.00,0.00,20.73,24.10,27.78,15.01,50.42,1042.03,2037.46,1799.00,1904.20,2130.84,599.87,615.55,36.20,0000 0000 0000 0000 000000
2017-02-05 10:25:36,0.10,6.00,0.00,20.70,24.09,27.77,15.00,50.42,1042.03,2037.42,1797.89,1903.53,2129.92,599.95,615.80,36.25,0000 0000 0000 0000 000000
2017-02-05 10:30:37,0.11,6.01,0.00,20.70,24.08,27.76,15.07,50.40,1042.08,2037.27,1796.76,1902.70,2128.95,600.15,615.98,36.30,0000 0000 0000 0000 000000
2017-02-05 10:35:39,0.14,6.02,0.00,20.71,24.07,27.76,14.99,50.39,1042.09,2037.45,1795.72,1901.97,2128.03,599.72,615.54,36.35,0000 0000 0000 0000 000000
2017-02-05 10:40:40,0.14,6.02,0.00,20.67,24.07,27.78,15.02,50.38,1042.04,2037.68,1794.73,1901.15,2127.15,599.89,615.64,36.40,0000 0000 0000 0000 000000
2017-02-05 10:45:41,0.13,6.03,0.00,20.68,24.07,27.76,15.03,50.43,1042.19,2037.71,1793.57,1900.44,2126.26,600.29,616.21,36.45,0000 0000 0000 0000 000000
2017-02-05 10:50:42,0.08,6.04,0.00,20.72,24.07,27.75,14.98,50.36,1042.32,2037.55,1792.48,1899.72,2125.28,599.85,615.68,36.50,0000 0000 0000 0000 000000
2017-02-05 10:55:44,0.12,6.04,0.00,20.72,24.06,27.76,14.98,50.37,1042.39,2037.63,1791.52,1898.93,2124.41,599.98,615.87,36.55,0000 0000 0000 0000 000000
2017-02-05 11:00:45,0.14,6.05,0.00,20.67,24.05,27.74,14.97,50.47,1042.38,2037.76,1790.42,1898.10,2123.47,599.69,615.68,36.60,0000 0000 0000 0000 000000
2017-02-05 11:05:46,0.14,6.06,0.00,20.68,24.05,27.71,15.04,50.39,1042.09,2037.90,1789.37,1897.40,2122.63,600.11,615.73,36.65,0000 0000 0000 0000 000000
2017-02-05 11:10:48,0.10,6.06,0.00,20.73,24.05,27.72,15.00,50.38,1042.05,2037.87,1788.26,1896.65,2121.66,599.52,615.12,36.70,0000 0000 0000 0000 000000
2017-02-05 11:15:49,0.09,6.07,0.00,20.70,24.05,27.74,15.04,50.34,1042.02,2037.77,1787.13,1895.93,2120.73,600.06,615.78,36.75,0000 0000 0000 0000 000000
2017-02-05 11:20:50,0.12,6.07,0.00,20.65,24.03,27.74,15.03,50.57,1042.04,2037.80,1786.00,1895.08,2119.81,599.72,615.63,36.80,0000 0000 0000 0000 000000
2017-02-05 11:25:51,0.15,6.08,0.00,20.68,24.02,27.70,15.11,50.39,1042.06,2037.87,1784.84,1894.20,2118.90,600.32,615.97,36.85,0000 0000 0000 0000 000000
2017-02-05 11:30:53,0.12,6.09,0.00,20.70,24.02,27.69,14.97,50.39,1042.24,2037.85,1783.72,1893.52,2117.93,599.90,615.74,36.90,0000 0000 0000 0000 000000
2017-02-05 11:35:54,0.12,6.09,0.00,20.66,24.02,27.70,15.04,50.41,1042.44,2037.79,1782.54,1892.76,2116.97,599.94,616.01,36.96,0000 0000 0000 0000 000000
2017-02-05 11:40:55,0.10,6.10,0.00,20.63,24.01,27.69,15.04,50.42,1042.47,2037.76,1781.39,1891.99,2116.04,600.21,616.24,37.01,0000 0000 0000 0000 000000
2017-02-05 11:45:57,0.12,6.11,0.00,20.67,24.00,27.69,15.04,50.50,1042.30,2037.83,1780.34,1891.12,2115.12,600.32,616.27,37.06,0000 0000 0000 0000 000000
2017-02-05 11:50:59,0.14,6.11,0.00,20.67,24.00,27.68,15.04,50.43,1042.28,2037.85,1779.15,1890.34,2114.15,600.10,616.03,37.11,0000 0000 0000 0000 000000
2017-02-05 11:56:00,0.11,6.12,0.00,20.62,24.00,27.67,14.99,50.41,1042.40,2037.92,1778.03,1889.67,2113.27,599.85,615.99,37.16,0000 0000 0000 0000 000000
2017-02-05 12:01:01,0.12,6.13,0.00,20.62,24.00,27.71,15.12,50.47,1042.46,2037.97,1776.94,1888.88,2112.40,600.07,616.10,37.21,0000 0000 0000 0000 000000
2017-02-05 12:06:02,0.12,6.13,0.00,20.68,23.99,27.67,15.12,50.52,1042.40,2037.98,1775.92,1888.06,2111.43,600.12,616.10,37.26,0000 0000 0000 0000 000000
2017-02-05 12:11:04,0.13,6.14,0.00,20.66,23.98,27.69,15.05,50.48,1042.21,2037.98,1774.79,1887.31,2110.69,599.87,615.78,37.31,0000 0000 0000 0000 000000
2017-02-05 12:16:05,0.12,6.14,0.00,20.60,23.97,27.69,14.99,50.42,1042.06,2037.98,1773.66,1886.50,2109.83,600.15,616.10,37.36,0000 0000 0000 0000 000000
2017-02-05 12:21:06,0.11,6.15,0.00,20.62,23.97,27.69,14.99,50.43,1042.06,2037.96,1772.52,1885.74,2108.88,599.88,615.78,37.41,0000 0000 0000 0000 000000
2017-02-05 12:26:07,0.10,6.16,0.00,20.64,23.97,27.67,15.03,50.48,1042.05,2037.96,1771.44,1884.94,2107.95,599.95,615.86,37.46,0000 0000 0000 0000 000000
2017-02-05 12:31:08,0.13,6.16,0.00,20.63,23.97,27.67,15.01,50.52,1042.05,2037.96,1770.32,1884.08,2107.02,600.11,615.98,37.51,0000 0000 0000 0000 000000
2017-02-05 12:36:10,0.13,6.17,0.00,20.57,23.96,27.65,14.99,50.63,1042.10,2037.98,1769.21,1883.36,2106.06,599.30,615.25,37.56,0000 0000 0000 0000 000000
2017-02-05 12:41:11,0.12,6.18,0.00,20.59,23.95,27.63,15.04,50.49,1042.06,2037.99,1768.10,1882.57,2105.13,600.28,616.23,37.61,0000 0000 0000 0000 000000
2017-02-05 12:46:12,0.10,6.18,0.00,20.62,23.95,27.58,15.04,50.50,1042.12,2037.97,1767.04,1881.87,2104.23,600.12,616.07,37.66,0000 0000 0000 0000 000000
2017-02-05 12:51:14,0.12,6.19,0.00,20.62,23.95,27.61,14.94,50.57,1042.03,2037.98,1765.93,1881.06,2103.40,599.79,615.73,37.71,0000 0000 0000 0000 000000
2017-02-05 12:56:15,0.14,6.19,0.00,20.56,23.94,27.62,15.11,50.59,1042.02,2037.98,1764.79,1880.25,2102.43,600.22,616.23,37.76,0000 0000 0000 0000 000000